[[{"header":{"parameterUnit":"m.s-1","parameterCategory":1,"la1":30.2991,"la2":30.254,"lo1":-89.0895,"lo2":-89.0444,"dy":0.0017,"dx":0.0017,"nx":28,"ny":28,"refTime":"2025-04-26T21:00:00:Z","depth":0,"parameterNumber":2,"parameterNumberName":"U-component_of_WINDS"},"data":[0,0,0,0,0,0,0,0,0,0,0,0,0,0,0,0,0,0,0,0,0,0,0,0,0,0,0,0,0,0,0,0,0,0,0,0,0,0,0,0,0,0,0,0,0,0,0,0,0,0,0,0,0,0,0,0,0,0,-0.9894,-0.9895,0,-0.993,-0.9931,-0.9931,-0.9958,-0.9958,-0.9958,-0.9958,-0.9993,-0.9994,-0.9994,0,0,0,0,0,0,0,0,0,0,0,0,0,-0.9847,-0.9848,-0.9894,-0.9895,-0.9895,-0.993,-0.9931,-0.9931,-0.9958,-0.9958,-0.9958,-0.9958,-0.9993,-0.9993,-0.9994,0,0,0,0,0,0,0,0,0,0,0,0,0,-0.9874,-0.9848,-0.9894,-0.9913,-0.9915,-0.993,-0.9931,-0.9931,-0.9957,-0.9958,-0.9958,-0.9958,-0.9992,-0.9993,-0.9994,-0.9994,0,0,-0.9998,-0.9998,0,0,0,0,0,0,0,0,-0.9872,-0.9875,-0.9909,-0.9911,-0.9914,-0.994,-0.9927,-0.9952,-0.9957,-0.9941,-0.9958,-0.9959,-0.9975,-0.9977,-0.9983,-0.9996,-0.9997,-0.9998,-0.9998,-0.9999,-0.9999,0,0,0,0,0,0,0,-0.987,-0.9874,-0.9909,-0.991,-0.9912,-0.9919,-0.9923,-0.9932,-0.9955,-0.9943,-0.9945,-0.9949,-0.9976,-0.9982,-0.9984,-0.9998,-0.9998,-0.9999,-0.9999,-1.0,-1.0013,-1.0013,0,0,0,0,0,0,-0.9866,-0.9872,-0.9907,-0.991,-0.9893,-0.9919,-0.9924,-0.9931,-0.9956,-0.996,-0.9948,-0.995,-0.998,-0.9983,-0.9986,-0.9987,-0.9999,-1.0,-1.0,-1.0013,-1.0013,-1.0012,0,0,0,0,0,0,-0.9865,-0.9869,-0.9906,-0.9892,-0.9897,-0.992,-0.9928,-0.9932,-0.9938,-0.996,-0.9964,-0.995,-0.9981,-0.9984,-0.9992,-0.9989,-1.0,-1.0001,-1.0013,-1.0013,-1.0013,-0.999,0,0,0,0,0,0,-0.9863,-0.9868,-0.9868,-0.9891,-0.9898,-0.9912,-0.9927,-0.9932,-0.994,-0.9942,-0.9963,-0.9967,-0.9981,-0.9991,-0.9993,-0.9991,-1.0002,-1.0014,-1.0013,-1.0013,-0.9991,-0.9989,-0.9987,0,0,0,0,0,-0.9861,-0.986,-0.9868,-0.9872,-0.9898,-0.9912,-0.9915,-0.9933,-0.9939,-0.994,-0.9954,-0.9966,-0.9989,-0.9991,-0.9994,-0.9992,-1.0014,-1.0013,-1.0013,-0.9992,-0.999,-0.9987,0,0,0,0,0,0,-0.9834,-0.9863,-0.9873,-0.9879,-0.9893,-0.9916,-0.9917,-0.9929,-0.9941,-0.9942,-0.9963,-0.9967,-0.9973,-0.9984,-0.9985,-0.9994,-1.0003,-1.0003,-0.9986,-0.9984,-0.9982,-0.9979,-1.0003,0,0,0,0,0,-0.9829,-0.9839,-0.9863,-0.9866,-0.9873,-0.9894,-0.99,-0.9913,-0.9928,-0.9934,-0.9949,-0.9962,-0.9973,-0.9979,-0.999,-0.9994,-0.9999,-0.9994,-0.9992,-0.999,-0.9989,-0.9993,-0.9991,-1.001,-1.001,-1.001,0,0,-0.9818,-0.9835,-0.984,-0.9861,-0.9873,-0.9882,-0.9898,-0.9907,-0.9913,-0.9935,-0.9943,-0.9955,-0.9972,-0.9978,-0.9981,-0.9987,-0.9985,-0.9989,-0.9987,-0.9988,-0.9992,-0.999,-0.9988,-1.001,-1.001,-1.001,0,0,-0.9803,-0.9817,-0.9821,-0.9834,-0.9853,-0.9867,-0.9868,-0.9891,-0.99,-0.9909,-0.9926,-0.9934,-0.9951,-0.9963,-0.9971,-0.9962,-0.9974,-0.9965,-0.9954,-0.9957,-0.9956,-0.9954,-0.9951,-0.995,-0.9965,-0.9965,-0.9965,0,-0.9787,-0.9801,-0.9821,-0.9829,-0.9838,-0.986,-0.9864,-0.9875,-0.9897,-0.9902,-0.9908,-0.9932,-0.9944,-0.9954,-0.9952,-0.9958,-0.996,-0.9962,-0.9954,-0.9953,-0.9952,-0.995,-0.9948,-0.9964,-0.9964,-0.9964,-0.9964,0,-0.978,-0.979,-0.9791,-0.9813,-0.9822,-0.9828,-0.9849,-0.9856,-0.9869,-0.9882,-0.9892,-0.9909,-0.9924,-0.9927,-0.9938,-0.9938,-0.9941,-0.9951,-0.996,-0.9949,-0.9947,-0.9946,-0.9962,-0.9962,-0.9963,-0.9963,0,0,-0.9747,-0.9782,-0.9781,-0.9792,-0.9816,-0.9824,-0.9831,-0.9847,-0.9852,-0.9867,-0.9874,-0.9889,-0.9898,-0.9908,-0.9921,-0.9924,-0.9916,-0.9933,-0.9933,-0.9929,-0.9918,-0.991,-0.9909,-0.9924,-0.9924,-0.9924,-0.9916,0,-0.9735,-0.975,-0.977,-0.9778,-0.9788,-0.9809,-0.9816,-0.9831,-0.9844,-0.9854,-0.9869,-0.988,-0.9891,-0.9897,-0.9901,-0.9916,-0.9914,-0.9917,-0.993,-0.993,-0.9925,-0.9908,-0.9899,-0.9891,-0.9916,-0.9915,-0.9915,0,-0.9723,-0.9738,-0.9747,-0.9772,-0.9776,-0.9782,-0.9799,-0.9808,-0.9826,-0.9836,-0.9847,-0.9862,-0.9871,-0.9881,-0.9893,-0.9895,-0.9902,-0.991,-0.991,-0.9912,-0.9922,-0.9908,-0.9889,-0.9887,-0.9914,-0.9914,-0.9914,0,-0.9698,-0.972,-0.9729,-0.9737,-0.9766,-0.9769,-0.9781,-0.98,-0.9809,-0.9823,-0.9829,-0.9844,-0.9852,-0.9864,-0.9882,-0.9887,-0.9893,-0.9904,-0.9901,-0.99,-0.99,-0.99,-0.9881,-0.9905,-0.9905,-0.9905,-0.9905,0,-0.9682,-0.9687,-0.9718,-0.9723,-0.973,-0.9753,-0.9758,-0.9772,-0.9789,-0.9797,-0.9817,-0.9824,-0.9848,-0.9859,-0.9873,-0.9882,-0.9885,-0.9893,-0.9897,-0.9891,-0.989,-0.9895,-0.9896,-0.9905,-0.9905,-0.9905,-0.9905,0,-0.9654,-0.9675,-0.9686,-0.9713,-0.972,-0.9724,-0.9747,-0.9753,-0.9769,-0.9779,-0.9783,-0.9807,-0.982,-0.984,-0.9859,-0.9869,-0.9875,-0.9881,-0.9869,-0.9871,-0.9867,-0.9867,-0.9851,-0.985,-0.9875,-0.9874,-0.9874,0,-0.9642,-0.9647,-0.9675,-0.9682,-0.9694,-0.9706,-0.9715,-0.9738,-0.9747,-0.9769,-0.9773,-0.9788,-0.9801,-0.9821,-0.984,-0.9855,-0.9862,-0.9855,-0.9864,-0.9858,-0.9861,-0.9861,-0.9861,-0.9852,-0.9852,-0.9852,-0.9851,0,-0.9619,-0.963,-0.9643,-0.966,-0.9672,-0.9686,-0.9702,-0.9707,-0.9733,-0.9742,-0.9757,-0.9767,-0.9788,-0.9802,-0.982,-0.9832,-0.9846,-0.9849,-0.9849,-0.9843,-0.9835,-0.9839,-0.9863,-0.9849,-0.9849,-0.9849,-0.9849,-0.9849,-0.9598,-0.9604,-0.9625,-0.964,-0.9654,-0.9669,-0.9676,-0.9693,-0.9706,-0.9725,-0.9738,-0.9752,-0.9771,-0.9797,-0.9808,-0.9819,-0.9825,-0.9825,-0.9825,-0.9825,-0.9823,-0.9834,-0.9823,-0.9823,-0.9823,-0.9823,-0.9823,0,-0.9576,-0.9591,-0.9604,-0.9626,-0.9638,-0.9652,-0.967,-0.9679,-0.9691,-0.9708,-0.9722,-0.9739,-0.9754,-0.9775,-0.9791,-0.9796,-0.9803,-0.9799,-0.9799,-0.9802,-0.9816,-0.9815,-0.9794,-0.9794,-0.9794,-0.9794,-0.9794,-0.9794,-0.9565,-0.9576,-0.9589,-0.9607,-0.9623,-0.9637,-0.9647,-0.966,-0.9674,-0.9693,-0.9706,-0.972,-0.9739,-0.9757,-0.9772,-0.9777,-0.9782,-0.9777,-0.9784,-0.9798,-0.98,-0.9803,-0.9801,-0.9778,-0.9778,-0.9769,-0.9769,-0.9769]},{"header":{"parameterUnit":"m.s-1","parameterCategory":1,"la1":30.2991,"la2":30.254,"lo1":-89.0895,"lo2":-89.0444,"dy":0.0017,"dx":0.0017,"nx":28,"ny":28,"refTime":"2025-04-26T21:00:00:Z","depth":0,"parameterNumber":3,"parameterNumberName":"V-component_of_WINDS"},"data":[0,0,0,0,0,0,0,0,0,0,0,0,0,0,0,0,0,0,0,0,0,0,0,0,0,0,0,0,0,0,0,0,0,0,0,0,0,0,0,0,0,0,0,0,0,0,0,0,0,0,0,0,0,0,0,0,0,0,0.8777,0.8777,0,0.8838,0.8839,0.8839,0.8853,0.8853,0.8853,0.8852,0.8918,0.892,0.8922,0,0,0,0,0,0,0,0,0,0,0,0,0,0.8675,0.8677,0.8777,0.8777,0.8778,0.8838,0.8839,0.884,0.8854,0.8853,0.8853,0.8852,0.8917,0.892,0.8922,0,0,0,0,0,0,0,0,0,0,0,0,0,0.8726,0.8677,0.8777,0.8792,0.8794,0.8838,0.8839,0.884,0.8854,0.8853,0.8852,0.8852,0.8916,0.8919,0.8923,0.8956,0,0,0.8933,0.8934,0,0,0,0,0,0,0,0,0.8723,0.873,0.8789,0.8791,0.8794,0.8837,0.8827,0.8879,0.8854,0.8831,0.8852,0.8851,0.8892,0.8897,0.891,0.8959,0.8962,0.8933,0.8935,0.8936,0.8937,0,0,0,0,0,0,0,0.872,0.8727,0.8801,0.879,0.8793,0.8797,0.8804,0.8837,0.8865,0.8833,0.8834,0.8841,0.8893,0.8907,0.8912,0.8963,0.8933,0.8936,0.8938,0.8939,0.9042,0.9043,0,0,0,0,0,0,0.8713,0.8724,0.8799,0.8803,0.8756,0.88,0.8807,0.8824,0.8864,0.887,0.8842,0.8842,0.8902,0.8908,0.8914,0.8956,0.8936,0.8939,0.8941,0.9042,0.9043,0.9043,0,0,0,0,0,0,0.8711,0.8719,0.8797,0.8764,0.8774,0.8802,0.8821,0.8826,0.884,0.8871,0.8876,0.8851,0.8901,0.891,0.8945,0.8958,0.8941,0.8944,0.9041,0.9042,0.9043,0.9039,0,0,0,0,0,0,0.8708,0.8719,0.8731,0.8764,0.8776,0.8826,0.8822,0.8827,0.8845,0.8845,0.888,0.8886,0.8902,0.894,0.8948,0.8962,0.8946,0.904,0.9041,0.9043,0.9038,0.904,0.9042,0,0,0,0,0,0.8704,0.8728,0.8731,0.874,0.8791,0.8826,0.8833,0.885,0.8846,0.8859,0.8879,0.8885,0.8955,0.8944,0.8953,0.8968,0.9039,0.9041,0.9043,0.9037,0.904,0.9042,0,0,0,0,0,0,0.8696,0.8732,0.8737,0.8771,0.8796,0.8829,0.8845,0.8852,0.8879,0.8878,0.8899,0.8907,0.8941,0.8959,0.8945,0.9003,0.8997,0.9001,0.899,0.8993,0.8994,0.8989,0.8949,0,0,0,0,0,0.8698,0.8722,0.8753,0.8781,0.8793,0.8817,0.8833,0.8844,0.887,0.8881,0.8904,0.893,0.8958,0.8976,0.9004,0.9041,0.9049,0.9056,0.9058,0.9059,0.9062,0.9084,0.9087,0.905,0.9049,0.9049,0,0,0.8703,0.8726,0.874,0.878,0.88,0.8826,0.8826,0.8853,0.8873,0.8885,0.892,0.8938,0.8969,0.9005,0.9023,0.9021,0.9074,0.9061,0.9062,0.9065,0.9086,0.9089,0.9092,0.9051,0.9051,0.905,0,0,0.8725,0.8744,0.8769,0.8789,0.882,0.8836,0.8842,0.8874,0.8886,0.8921,0.8931,0.8956,0.9004,0.9026,0.9043,0.9074,0.908,0.9082,0.9091,0.9112,0.9115,0.9118,0.9129,0.9133,0.9085,0.9085,0.9085,0,0.8727,0.8765,0.8782,0.8809,0.8827,0.8838,0.8865,0.8884,0.8922,0.8935,0.8932,0.8993,0.9014,0.9056,0.9064,0.9077,0.9086,0.9078,0.9113,0.9116,0.9119,0.913,0.9134,0.9085,0.9085,0.9085,0.9085,0,0.8767,0.8794,0.8811,0.8846,0.8866,0.8893,0.8914,0.8933,0.8942,0.8959,0.8995,0.9022,0.9055,0.9066,0.9076,0.911,0.9108,0.9109,0.9103,0.9122,0.9133,0.9137,0.9085,0.9085,0.9085,0.9085,0,0,0.8785,0.8829,0.8836,0.8852,0.8886,0.8908,0.8936,0.8968,0.8983,0.9009,0.9034,0.9074,0.9076,0.9095,0.9108,0.9126,0.915,0.9125,0.9126,0.9129,0.919,0.9189,0.9193,0.9154,0.9155,0.9156,0.9187,0,0.8812,0.886,0.8876,0.8917,0.8942,0.8954,0.8979,0.9003,0.902,0.9045,0.9063,0.9092,0.9091,0.9103,0.9122,0.9143,0.9162,0.9141,0.9178,0.9179,0.917,0.9199,0.9198,0.9226,0.9191,0.9192,0.9193,0,0.8848,0.8874,0.8917,0.8949,0.896,0.8981,0.9012,0.9036,0.9064,0.9075,0.9097,0.9108,0.9139,0.9132,0.9175,0.9161,0.9177,0.919,0.9191,0.9196,0.9187,0.9204,0.9235,0.924,0.92,0.9199,0.9199,0,0.8858,0.8903,0.8935,0.8949,0.8986,0.9001,0.9018,0.9045,0.9064,0.9091,0.9104,0.9135,0.9152,0.9176,0.9196,0.9189,0.9238,0.9232,0.9249,0.9248,0.9258,0.9258,0.9293,0.9269,0.9269,0.9269,0.9268,0,0.8885,0.8911,0.894,0.8959,0.8989,0.9008,0.9037,0.9055,0.908,0.9104,0.9117,0.9139,0.9164,0.919,0.9206,0.924,0.9248,0.9258,0.9262,0.9257,0.9256,0.9268,0.9267,0.927,0.9269,0.9269,0.9269,0,0.8901,0.892,0.8956,0.8988,0.8997,0.9018,0.9047,0.9067,0.9084,0.9114,0.9123,0.915,0.9182,0.9204,0.9245,0.9256,0.9292,0.9296,0.9282,0.9284,0.9299,0.9298,0.9344,0.9352,0.9322,0.9322,0.9322,0,0.8917,0.8937,0.8972,0.8988,0.9004,0.9031,0.905,0.907,0.9089,0.9123,0.9139,0.9172,0.9198,0.9249,0.9273,0.9305,0.931,0.9324,0.9314,0.9309,0.931,0.9309,0.9311,0.9325,0.9325,0.9325,0.9326,0,0.8944,0.8953,0.8978,0.9008,0.903,0.9054,0.9079,0.9092,0.9116,0.9138,0.9169,0.919,0.9232,0.9264,0.9298,0.9317,0.9326,0.9328,0.9334,0.9329,0.932,0.9326,0.9286,0.9327,0.9327,0.9327,0.9327,0.9327,0.8961,0.8979,0.9006,0.9035,0.9055,0.9078,0.9099,0.9118,0.9145,0.918,0.919,0.9224,0.9253,0.9299,0.9319,0.9346,0.9345,0.9353,0.9355,0.9357,0.9357,0.9316,0.9352,0.9352,0.9352,0.9352,0.9352,0,0.8989,0.9007,0.9033,0.9066,0.9089,0.9094,0.9122,0.9141,0.917,0.9196,0.9222,0.9259,0.9291,0.9318,0.9351,0.9368,0.9373,0.9376,0.9375,0.9379,0.9355,0.9347,0.9371,0.9371,0.9371,0.9371,0.9371,0.9371,0.9006,0.9038,0.905,0.9093,0.9111,0.9143,0.9159,0.918,0.9201,0.9242,0.9268,0.9285,0.9312,0.9347,0.9376,0.9384,0.9395,0.9398,0.9406,0.9383,0.9381,0.9379,0.9371,0.94,0.94,0.9428,0.9428,0.9428]}]]